Header for Extended Forecast Station List Page

Search by: ID | Name | Date | Parm | Value | Avg | % Avg
Sort by: ID | Name | Date | Parm | Value | Avg | % Avg

Enter search or view all records.

Click on id for station plot
#IDNameDateParmValueAvg% Avg
0BULO3BULLY CREEK-BULLY CREEK DAM09-21-2020INFLOW (KAF)0116
1RIDI1WILLOW CREEK-RIRIE DAM09-21-2020INFLOW (KAF)6877
2MACI1BIG LOST-MACKAY RESERVOIR NEAR MACKAY09-21-2020INFLOW (KAF)339389
3MYKO3MCKAY CREEK-NEAR PILOT ROCK09-21-2020DISCHARGE (KAF)109112
4WRMO3MALHEUR-WARM SPRINGS DAM09-21-2020INFLOW (KAF)1913142
5BERO3MALHEUR-AGENCY VALLEY DAM09-21-2020INFLOW (KAF)111385
6LWRI1LITTLE WOOD-LITTLE WOOD DAM09-21-2020INFLOW (KAF)111573
7DEDI1DEADWOOD-NEAR LOWMAN09-21-2020INFLOW (KAF)151983
8ARDW1ENTIAT-NEAR ARDENVOIR09-21-2020DISCHARGE (KAF)2922132
9SATI1ST MARIES-NEAR SANTA09-21-2020DISCHARGE (KAF)202481
10HWRI1BIG LOST-AT HOWELL RANCH NEAR CHILLY09-21-2020DISCHARGE (KAF)182477
11GIBO3UMATILLA-NEAR GIBBON09-21-2020DISCHARGE (KAF)222491
12HOTI1BRUNEAU-NEAR HOT SPRINGS09-21-2020DISCHARGE (KAF)212583
13MAGI1BIG WOOD-MAGIC DAM09-21-2020INFLOW (KAF)122745
14TNAW1TEANAWAY-BELOW FORKS09-21-2020DISCHARGE (KAF)222878
15BUDW1BUMPING-BUMPING LAKE DAM09-21-2020INFLOW (KAF)283190
16STRM8ST. REGIS-NEAR ST. REGIS09-21-2020DISCHARGE (KAF)203457
17KADW1KACHESS-KACHESS DAM09-21-2020INFLOW (KAF)4037108
18HALI1BIG WOOD-AT HAILEY09-21-2020DISCHARGE (KAF)264361
19KEDW1YAKIMA-KEECHELUS LAKE09-21-2020INFLOW (KAF)5546120
20UMAO3UMATILLA-NEAR UMATILLA09-21-2020DISCHARGE (KAF)9948205
21PDTO3UMATILLA-AT PENDLETON09-21-2020DISCHARGE (KAF)484998
22BIGI1BOISE-AT GLENWOOD BRIDGE09-21-2020DISCHARGE (KAF)245047
23RCCM8ROCK CREEK-NEAR CLINTON09-21-2020DISCHARGE (KAF)6853127
24PIHI1PORTNEUF-AT POCATELLO09-21-2020DISCHARGE (KAF)545499
25WSRI1WEISER-NEAR WEISER09-21-2020DISCHARGE (KAF)405672
26EASW1YAKIMA-AT EASTON09-21-2020DISCHARGE (KAF)496082
27RILW1TIETON-RIMROCK LAKE NEAR RIMROCK09-21-2020INFLOW (KAF)576292
28DLGM8CLARK FORK-AT DEER LODGE09-21-2020DISCHARGE (KAF)7463117
29OWYO3OWYHEE-OWYHEE DAM09-21-2020INFLOW (KAF)616791
30MONO3NF JOHN DAY-AT MONUMENT09-21-2020DISCHARGE (KAF)486772
31TCHW1WALLA WALLA-NEAR TOUCHET09-21-2020DISCHARGE (KAF)8070113
32ARAI1SF BOISE-ANDERSON RANCH DAM09-21-2020INFLOW (KAF)677294
33NACW1NACHES-NEAR NACHES09-21-2020DISCHARGE (KAF)9273127
34CSDI1NF PAYETTE-CASCADE DAM09-21-2020INFLOW (KAF)829091
35CLUW1CLE ELUM-CLE ELUM LAKE09-21-2020INFLOW (KAF)12092130
36CLFW1NACHES-NEAR CLIFFDEL09-21-2020DISCHARGE (KAF)859292
37PATW1METHOW-NEAR PATEROS09-21-2020DISCHARGE (KAF)112101111
38CHEI1FALL RIVER-NEAR CHESTER09-21-2020DISCHARGE (KAF)10410896
39JLKW4SNAKE-JACKSON LAKE AT DAM09-21-2020INFLOW (KAF)8311274
40TEAI1TETON-NEAR ST. ANTHONY09-21-2020DISCHARGE (KAF)11311895
41IPDI1HENRYS FORK-ISLAND PARK DAM09-21-2020INFLOW (KAF)131122107
42LAUW1KETTLE-AT LAURIER09-21-2020DISCHARGE (KAF)144128112
43SERO3JOHN DAY-AT SERVICE CK09-21-2020DISCHARGE (KAF)9713075
44BONM8BLACKFOOT-NEAR BONNER09-21-2020DISCHARGE (KAF)13714396
45CHDW1CHELAN-LAKE CHELAN DAM09-21-2020INFLOW (KAF)299158190
46HODO3HOOD-NEAR TUCKER BRIDGE09-21-2020DISCHARGE (KAF)189180105
47WGCM8MF FLATHEAD-NEAR WEST GLACIER09-21-2020DISCHARGE (KAF)7818143
48UNDW1WHITE SALMON-NEAR UNDERWOOD09-21-2020DISCHARGE (KAF)13819870
49FCFM8NF FLATHEAD-NEAR COLUMBIA FALLS09-21-2020DISCHARGE (KAF)13720965
50PARI1BOISE-NEAR PARMA09-21-2020DISCHARGE (KAF)16421975
51PRTI1PRIEST-NEAR PRIEST RIVER09-21-2020DISCHARGE (KAF)8822040
52PITW1KLICKITAT-NEAR PITT09-21-2020DISCHARGE (KAF)19322785
53BITM8BITTERROOT-NEAR MISSOULA09-21-2020DISCHARGE (KAF)18523579
54HHWM8SF FLATHEAD-HUNGRY HORSE DAM09-21-2020INFLOW (KAF)14624360
55TRYO3GRANDE RONDE-TROY09-21-2020DISCHARGE (KAF)16124566
56UMTW1YAKIMA-AT UMTANUM09-21-2020DISCHARGE (KAF)21726781
57PESW1WENATCHEE-AT PESHASTIN09-21-2020DISCHARGE (KAF)367273134
58TONW1OKANOGAN-NEAR TONASKET09-21-2020DISCHARGE (KAF)358278129
59ANTI1HENRYS FORK-AT ST. ANTHONY09-21-2020DISCHARGE (KAF)32533697
60EMMI1PAYETTE-NEAR EMMETT09-21-2020DISCHARGE (KAF)32135291
61PARW1YAKIMA-NEAR PARKER09-21-2020DISCHARGE (KAF)31535689
62ABOM8CLARK FORK-ABOVE MISSOULA09-21-2020DISCHARGE (KAF)373360104
63JKSW4SNAKE-NEAR JACKSON09-21-2020DISCHARGE (KAF)485366133
64MILI1SNAKE-AT MILNER09-21-2020DISCHARGE (KAF)94112
65REXI1HENRYS FORK-AT REXBURG09-21-2020DISCHARGE (KAF)42242799
66DWRI1NF CLEARWATER-DWORSHAK DAM09-21-2020INFLOW (KAF)29743369
67ALPW4SNAKE-NEAR ALPINE09-21-2020DISCHARGE (KAF)542459118
68COEI1COEUR D ALENE-COEUR D ALENE LAKE09-21-2020INFLOW (KAF)32847469
69ORFI1CLEARWATER-AT OROFINO09-21-2020DISCHARGE (KAF)41757473
70BELM8CLARK FORK-BELOW MISSOULA09-21-2020DISCHARGE (KAF)55760292
71KIOW1YAKIMA-AT KIONA09-21-2020DISCHARGE (KAF)56661093
72SNAI1SNAKE-AT BLACKFOOT09-21-2020DISCHARGE (KAF)733679108
73PLDI1SF SNAKE-PALISADES DAM09-21-2020INFLOW (KAF)817723113
74BFTI1SNAKE-NEAR BLACKFOOT09-21-2020DISCHARGE (KAF)754730103
75HEII1SNAKE-NEAR HEISE09-21-2020DISCHARGE (KAF)741741100
76SRGM8CLARK FORK-AT ST REGIS09-21-2020DISCHARGE (KAF)68577788
77SHYI1SNAKE-NEAR SHELLEY09-21-2020DISCHARGE (KAF)880802110
78SIFI1SNAKE-AB EAGLE ROCK NR IDAHO FALLS09-21-2020DISCHARGE (KAF)875853103
79LLKW1SPOKANE-AT LONGLAKE09-21-2020INFLOW (KAF)68492674
80LYDM8KOOTENAI-LIBBY DAM09-21-2020INFLOW (KAF)988103695
81WHBI1SALMON-AT WHITEBIRD09-21-2020DISCHARGE (KAF)1034110793
82CFMM8FLATHEAD-AT COLUMBIA FALLS09-21-2020DISCHARGE (KAF)861123370
83MODO3DESCHUTES-AT MOODY NR BIGGS09-21-2020DISCHARGE (KAF)1093127686
84SPDI1CLEARWATER-AT SPALDING09-21-2020DISCHARGE (KAF)885138064
85AFRI1SNAKE-AMERICAN FALLS RESERVOIR09-21-2020INFLOW (KAF)14261417101
86KERM8FLATHEAD-SELI’Š KSANKA QLISPE’ DAM09-21-2020INFLOW (KAF)989149966
87LEOI1KOOTENAI-AT LEONIA09-21-2020DISCHARGE (KAF)26271738151
88SWAI1SNAKE-BELOW SWAN FALLS09-21-2020DISCHARGE (KAF)1857246675
89NOXM8CLARK FORK-NOXON RAPIDS DAM09-21-2020INFLOW (KAF)2453335273
90CABI1CLARK FORK-CABINET GORGE DAM09-21-2020INFLOW (KAF)2687347977
91WEII1SNAKE-AT WEISER09-21-2020DISCHARGE (KAF)2782352079
92BRNI1SNAKE-BROWNLEE DAM09-21-2020INFLOW (KAF)2940358882
93ALFW1PEND OREILLE-ALBENI FALLS DAM09-21-2020INFLOW (KAF)2893400272
94ANAW1SNAKE-NEAR ANATONE09-21-2020DISCHARGE (KAF)3858533172
95IHDW1SNAKE-ICE HARBOR DAM09-21-2020INFLOW (KAF)4772687869
96LGDW1SNAKE-LOWER GRANITE DAM09-21-2020INFLOW (KAF)4743688369
97LGSW1SNAKE-LITTLE GOOSE DAM09-21-2020INFLOW (KAF)4743692269
98LMNW1SNAKE-LOWER MONUMENTAL DAM09-21-2020INFLOW (KAF)4770696069
99GCDW1COLUMBIA-GRAND COULEE DAM09-21-2020INFLOW (KAF)1931817396111
100WANW1COLUMBIA-WANAPUM DAM09-21-2020INFLOW (KAF)2137019065112
101PRWW1COLUMBIA-PRIEST RAPIDS DAM09-21-2020INFLOW (KAF)2140919361111
102CHJW1COLUMBIA-CHIEF JOSEPH DAM09-21-2020INFLOW (KAF)1998419990100
103WELW1COLUMBIA-WELLS DAM09-21-2020INFLOW (KAF)2045920325101
104RRHW1COLUMBIA-ROCKY REACH DAM09-21-2020INFLOW (KAF)2095920808101
105MCDW1COLUMBIA-MCNARY DAM09-21-2020INFLOW (KAF)267032777496
106JDAO3COLUMBIA-JOHN DAY DAM09-21-2020INFLOW (KAF)276002847297
107TDAO3COLUMBIA-THE DALLES DAM09-21-2020INFLOW (KAF)281703113390
108BONO3COLUMBIA-BONNEVILLE DAM09-21-2020INFLOW (KAF)286823281087
109BFEI1KOOTENAI-AT BONNERS FERRY09-21-2020STAGE (FT)MMM
110DRMM8CLARK FORK-NR DRUMMOND09-21-2020DISCHARGE (KAF)154MM
111HOPI1PEND OREILLE-PEND OREILLE LAKE NR HOPE09-21-2020LAKE ELEVATION (FT)MMM
112SPOW1SPOKANE-AT SPOKANE09-21-2020DISCHARGE (KAF)504MM
113SJMI1ST JOE-AT ST MARIES09-21-2020STAGE (FT)MMM
114CIBW1COLUMBIA-AT INTL BOUNDARY09-21-2020DISCHARGE (KAF)18399MM
115LUCI1BOISE-LUCKY PEAK DAM09-21-2020INFLOW (KAF)37MM